Location: Tamazert
(32.6352°N, 5.2072°W)
Time: 06:48:52
(UTC+00:00)

Hubble Space Telescope - Visible Passes

Search period start: 27 February 2024 00:00
Search period end: 08 March 2024 00:00
Orbit: 516 x 519 km, 28.5° (Epoch: 26 February)

Date Brightness Start Highest point End Pass type
(mag) Time Alt. Az. Time Alt. Az. Time Alt. Az.
27 Feb 1.4 19:09:54 10° WSW 19:13:42 42° S 19:16:04 20° ESE visible
27 Feb 3.6 20:50:22 10° WSW 20:50:59 14° WSW 20:50:59 14° WSW visible
28 Feb 1.4 18:52:26 10° WSW 18:56:16 43° S 18:59:43 12° ESE visible
28 Feb 2.9 20:32:57 10° WSW 20:34:38 22° WSW 20:34:38 22° WSW visible
29 Feb 2.1 20:15:33 10° WSW 20:18:16 32° SW 20:18:16 32° SW visible
01 Mar 1.7 19:58:08 10° WSW 20:01:49 35° S 20:01:54 35° S visible
02 Mar 1.9 19:40:43 10° WSW 19:44:20 33° SSW 19:45:34 27° SSE visible
03 Mar 2.1 19:23:18 10° WSW 19:26:50 30° SSW 19:29:15 17° SE visible
04 Mar 2.3 19:05:53 10° WSW 19:09:19 27° SSW 19:12:45 10° SE visible
05 Mar 2.5 18:48:29 10° WSW 18:51:47 25° SSW 18:55:06 10° SE visible
